sat.trackr.live / text

‹ back to catalog

STARLINK-31143

NORAD 58770 · 2024-011F

PAYLOAD ACTIVE UNKNOWN

§ Identity

Operator
Country
US
Launch date
2024-01-14
Launch site
AFWTR
Launch vehicle
Mass (kg)
RCS (m²)

Purposes: comms

External: N2YO · Heavens-Above · Gunter

§ Orbital elements

Epoch: 2026-09-20T05:07:58.891584Z

Period
93.85 min
Inclination
53.1584°
Eccentricity
0.0001010
Mean motion
15.34394733 rev/d
Perigee alt
462.0 km
Apogee alt
463.4 km
Semi-major
6,840.9 km
B*
4.8232e-5
RAAN
187.2381°
Arg perigee
81.7550°
Mean anomaly
278.3567°
Rev number
15,009

§ Raw data

STARLINK-311431 58770U 24011F   26263.21387606  .00001254  00000+0  48232-4 0  99912 58770  53.1584 187.2381 0001010  81.7550 278.3567 15.34394733150098

JSON: /api/v1/satellites/58770 · /tle

For live sub-satellite position, see the globe view (requires WebGL).

§ Visibility from observer

Set your observer location to see the next 7 days of passes ≥ 10°. The values pass through the URL so the page stays shareable.

No JS? Fill the form by hand. The geolocation button needs JavaScript.